Tracking 28920 objects as of 27-May-2024
HD Live streaming from Space Station
objects crossing your sky now

OBJECT B

Track OBJECT B now!
10-day predictions


NORAD ID: 55134
Int'l Code: 2023-003B
Perigee: 463.0 km
Apogee: 475.5 km
Inclination: 97.2 °
Period: 93.8 minutes
Semi major axis: 6840 km
RCS: Unknown
Launch date: January 9, 2023
Source: People's Republic of China (PRC)
Launch site: Jiuquan Satellite Launch Center, China (JSC)
Your satellite tracking list
Your tracking list is empty




NASA's NSSDC Master Catalog

Two Line Element Set (TLE):
1 55134U 23003B   24147.88320455  .00015430  00000-0  46152-3 0  9993
2 55134  97.2324 228.7846 0009148 302.9721  57.0642 15.34605708 76848
Source of the keplerian elements: AFSPC